Weather History for Southend-On-Sea, United Kingdom

Change the Weather History Date:

Wednesday, March 6, 2013

  Actual Average Record
Temperature  
Mean Temperature 47 °F -  
Max Temperature 53 °F 50 °F 57 °F (2014)
Min Temperature 41 °F 38 °F 28 °F (2005)
Degree Days  
Heating Degree Days 18    
Moisture  
Dew Point 40 °F    
Average Humidity 81    
Maximum Humidity 93    
Minimum Humidity 62    
Precipitation  
Precipitation 0.00 in - - ()
Sea Level Pressure  
Sea Level Pressure 29.55 in    
Wind  
Wind Speed 4 mph ()    
Max Wind Speed 9 mph    
Max Gust Speed -    
Visibility 4.5 miles    
Events Rain    
Averages and records for this station are not official NWS values.
T = Trace of Precipitation, MM = Missing Value Source: Averaged Metar Reports

Daily Weather History Graph

Daily Weather History Graph

Search for Another Location

Airport:

Trip Planner

Search our weather history database for the weather conditions in past years. The results will help you decide how hot, cold, wet, or windy it might be!

Date:

Astronomy

Mar. 06, 2013 Rise Set
Actual Time 6:31 AM GMT 5:46 PM GMT
Civil Twilight 5:58 AM GMT 6:19 PM GMT
Nautical Twilight 5:19 AM GMT 6:58 PM GMT
Astronomical Twilight 4:40 AM GMT 7:37 PM GMT
Moon 2:57 AM GMT (3/6) 11:41 AM GMT (3/6)
Length of Visible Light 12h 21m
Length of Day
11h 15m
Waning Crescent, 32% of the Moon is Illuminated
Mar 6
Waning Crescent
Mar 11
New
Mar 19
First Quarter
Mar 27
Full
Apr 3
Last Quarter

Hourly Weather History & Observations

Time (GMT) Temp. Windchill Dew Point Humidity Pressure Visibility Wind Dir Wind Speed Gust Speed Precip Events Conditions
12:20 AM 42.8 °F 41.1 °F 39.2 °F 87% 29.59 in - ENE 3.5 mph - N/A   Clear
12:50 AM 42.8 °F 41.1 °F 39.2 °F 87% 29.59 in - ENE 3.5 mph - N/A   Clear
1:50 AM 42.8 °F - 39.2 °F 87% 29.59 in - NE 2.3 mph - N/A   Clear
2:50 AM 42.8 °F - 39.2 °F 87% 29.56 in - NE 2.3 mph - N/A   Clear
3:50 AM 42.8 °F - 39.2 °F 87% 29.56 in 5.0 mi NE 1.2 mph - N/A   Unknown
4:20 AM 42.8 °F - 39.2 °F 87% 29.56 in 5.0 mi NE 2.3 mph - N/A   Unknown
4:50 AM 42.8 °F 41.1 °F 39.2 °F 87% 29.56 in 5.0 mi NNE 3.5 mph - N/A   Unknown
5:20 AM 42.8 °F 41.1 °F 39.2 °F 87% 29.56 in 5.0 mi NNE 3.5 mph - N/A   Unknown
5:50 AM 42.8 °F 41.1 °F 39.2 °F 87% 29.56 in 5.0 mi NE 3.5 mph - N/A   Unknown
6:50 AM 41.0 °F - 39.2 °F 93% 29.56 in 3.7 mi North 2.3 mph - N/A   Unknown
7:20 AM 42.8 °F - 41.0 °F 93% 29.56 in 3.7 mi North 2.3 mph - N/A   Unknown
7:50 AM 42.8 °F - 41.0 °F 93% 29.56 in 3.7 mi NNE 2.3 mph - N/A   Unknown
8:20 AM 42.8 °F 39.3 °F 41.0 °F 93% 29.56 in 3.7 mi ENE 5.8 mph - N/A   Unknown
8:50 AM 44.6 °F 42.2 °F 41.0 °F 87% 29.56 in 4.3 mi ENE 4.6 mph - N/A   Unknown
9:20 AM 44.6 °F 41.4 °F 41.0 °F 87% 29.56 in 4.3 mi NE 5.8 mph - N/A   Partly Cloudy
9:50 AM 46.4 °F 43.5 °F 41.0 °F 81% 29.56 in 5.0 mi ENE 5.8 mph - N/A   Partly Cloudy
10:20 AM 48.2 °F - 42.8 °F 82% 29.56 in 5.0 mi NE 4.6 mph - N/A   Unknown
10:50 AM 50.0 °F - 41.0 °F 71% 29.56 in 5.6 mi East 5.8 mph - N/A   Unknown
11:20 AM 50.0 °F - 42.8 °F 76% 29.56 in 5.6 mi ENE 4.6 mph - N/A   Unknown
11:50 AM 53.6 °F - 42.8 °F 67% 29.56 in 5.6 mi Variable 3.5 mph - N/A   Unknown
12:20 PM 53.6 °F - 42.8 °F 67% 29.56 in 5.6 mi Variable 4.6 mph - N/A   Unknown
12:50 PM 53.6 °F - 42.8 °F 67% 29.56 in 5.6 mi ENE 8.1 mph - N/A   Unknown
1:20 PM 53.6 °F - 41.0 °F 62% 29.53 in - East 8.1 mph - N/A   Clear
1:50 PM 53.6 °F - 41.0 °F 62% 29.53 in - ENE 8.1 mph - N/A   Clear
2:20 PM 53.6 °F - 41.0 °F 62% 29.53 in - ENE 9.2 mph - N/A   Clear
2:50 PM 51.8 °F - 42.8 °F 71% 29.53 in - NE 6.9 mph - N/A   Clear
3:20 PM 50.0 °F - 41.0 °F 71% 29.53 in 5.6 mi ENE 6.9 mph - N/A   Unknown
3:50 PM 50.0 °F - 41.0 °F 71% 29.53 in 5.6 mi ENE 8.1 mph - N/A   Unknown
4:20 PM 48.2 °F - 39.2 °F 71% 29.53 in 5.6 mi ENE 8.1 mph - N/A   Unknown
4:50 PM 48.2 °F - 39.2 °F 71% 29.53 in 5.6 mi ENE 9.2 mph - N/A   Unknown
5:20 PM 46.4 °F 42.9 °F 39.2 °F 76% 29.53 in 5.0 mi ENE 6.9 mph - N/A   Unknown
5:50 PM 44.6 °F 40.7 °F 39.2 °F 81% 29.53 in 4.3 mi NE 6.9 mph - N/A   Unknown
6:20 PM 44.6 °F 42.2 °F 39.2 °F 81% 29.53 in 4.3 mi ENE 4.6 mph - N/A   Unknown
6:50 PM 44.6 °F 42.2 °F 39.2 °F 81% 29.56 in 4.3 mi East 4.6 mph - N/A   Unknown
7:20 PM 44.6 °F 42.2 °F 39.2 °F 81% 29.56 in 3.1 mi East 4.6 mph - N/A   Haze
7:50 PM 44.6 °F 43.1 °F 39.2 °F 81% 29.56 in 3.1 mi NE 3.5 mph - N/A   Haze
8:20 PM 44.6 °F 43.1 °F 39.2 °F 81% 29.56 in 3.1 mi NE 3.5 mph - N/A   Haze
8:50 PM 44.6 °F 43.1 °F 39.2 °F 81% 29.56 in 3.1 mi NE 3.5 mph - N/A   Haze
9:20 PM 44.6 °F 43.1 °F 41.0 °F 87% 29.53 in 3.7 mi NE 3.5 mph - N/A   Unknown
9:50 PM 42.8 °F 40.1 °F 39.2 °F 87% 29.53 in 3.7 mi ENE 4.6 mph - N/A   Unknown
10:20 PM 44.6 °F 42.2 °F 41.0 °F 87% 29.53 in 3.7 mi NE 4.6 mph - N/A   Unknown
10:50 PM 42.8 °F - 39.2 °F 87% 29.53 in 4.3 mi NNE 2.3 mph - N/A Rain Light Rain
11:20 PM 44.6 °F - 41.0 °F 87% 29.53 in 4.3 mi Variable 2.3 mph - N/A Rain Light Rain
11:50 PM 44.6 °F - 41.0 °F 87% 29.53 in 4.3 mi Variable 2.3 mph - N/A Rain Light Rain